User: anonymous   Login
Location: Caltech
(34.1382°N, 118.1253°W)
Time: 16:10:38
(UTC-07:00)
Language:

NOSS 3-4 (C) - Orbit

View from above orbital plane
View from above orbital plane
View from above satellite
View from above satellite

Ground track
Ground track

The orbit data is extracted from the following two-line orbital elements,

1 31708U 07027C   15180.89154669 0.00000010  00000-0  17214-4 0    01
2 31708  63.4030 114.2549 0134000  30.8252 329.1748 13.40684680    05
Epoch (UTC): 29 June 2015 21:23:49
Eccentricity: 0.0134000
inclination: 63.4030°
perigee height: 1006 km
apogee height: 1207 km
right ascension of ascending node: 114.2549°
argument of perigee: 30.8252°
revolutions per day: 13.40684680
mean anomaly at epoch: 329.1748°
orbit number at epoch: 0

The dashed part of the orbit path shows where the satellite is in the earth's shadow,  

DLR